View from above orbital plane
|
View from above satellite
|
Ground track
|
The orbit data is extracted from the following two-line orbital elements,
1 20963U 90097B 20143.52649091 0.00000000 00000-0 00000-0 0 04
2 20963 16.2120 353.1106 0013096 233.4602 126.4312 0.98583091 04
Epoch (UTC): | 22 May 2020 12:38:08 |
Eccentricity: | 0.0013096 |
inclination: | 16.2120° |
perigee height: | 36210 km |
apogee height: | 36322 km |
right ascension of ascending node: | 353.1106° |
argument of perigee: | 233.4602° |
revolutions per day: | 0.98583091 |
mean anomaly at epoch: | 126.4312° |
orbit number at epoch: | 0 |
The dashed part of the orbit path shows where the satellite is in the earth's shadow,
|
|